sat.trackr.live / text

‹ back to catalog

BLACK KITE-2

NORAD 68474 · 2026-067BL

PAYLOAD ACTIVE UNKNOWN

§ Identity

Operator
Country
ROC
Launch date
2026-03-30
Launch site
AFWTR
Launch vehicle
Mass (kg)
RCS (m²)

External: N2YO · Heavens-Above · Gunter

§ Orbital elements

Epoch: 2026-05-25T03:39:04.349088Z

Period
96.49 min
Inclination
97.7538°
Eccentricity
0.0001957
Mean motion
14.92457891 rev/d
Perigee alt
588.9 km
Apogee alt
591.6 km
Semi-major
6,968.4 km
B*
2.0046e-4
RAAN
103.7861°
Arg perigee
12.8992°
Mean anomaly
347.2277°
Rev number
829

§ Raw data

BLACK KITE-21 68474U 26067BL  26145.15213367  .00001999  00000+0  20046-3 0  99982 68474  97.7538 103.7861 0001957  12.8992 347.2277 14.92457891  8290

JSON: /api/v1/satellites/68474 · /tle

For live sub-satellite position, see the globe view (requires WebGL).

§ Visibility from observer

Set your observer location to see the next 7 days of passes ≥ 10°. The values pass through the URL so the page stays shareable.

No JS? Fill the form by hand. The geolocation button needs JavaScript.